Weather History for Lee's Summit, MO

Change the Weather History Date:

Thursday, February 28, 2013

  Actual Average (KMKC) Record (KMKC)
Temperature  
Mean Temperature 29 °F -  
Max Temperature 32 °F 44 °F 75 °F (2006)
Min Temperature 26 °F 27 °F 15 °F (2001)
Degree Days  
Heating Degree Days 36    
Moisture  
Dew Point 23 °F    
Average Humidity 77    
Maximum Humidity 80    
Minimum Humidity 69    
Precipitation  
Precipitation 0.00 in - - ()
Sea Level Pressure  
Sea Level Pressure 30.15 in    
Wind  
Wind Speed 12 mph (NW)    
Max Wind Speed 18 mph    
Max Gust Speed 24 mph    
Visibility 10 miles    
Events      
Averages and records for this station are not official NWS values.
T = Trace of Precipitation, MM = Missing Value Source: NWS Daily Summary

Daily Weather History Graph

Daily Weather History Graph

Search for Another Location

Airport:

Trip Planner

Search our weather history database for the weather conditions in past years. The results will help you decide how hot, cold, wet, or windy it might be!

Date:

Astronomy

Feb. 28, 2013 Rise Set
Actual Time 6:50 AM CST 6:09 PM CST
Civil Twilight 6:24 AM CST 6:36 PM CST
Nautical Twilight 5:53 AM CST 7:07 PM CST
Astronomical Twilight 5:22 AM CST 7:38 PM CST
Moon 9:35 PM CST (2/28) 8:03 AM CST (2/28)
Length of Visible Light 12h 12m
Length of Day
11h 18m
Waning Gibbous, 90% of the Moon is Illuminated
Feb 28
Waning Gibbous
Mar 4
Last Quarter
Mar 11
New
Mar 19
First Quarter
Mar 27
Full

Hourly Weather History & Observations

Time (CST) Temp. Windchill Dew Point Humidity Pressure Visibility Wind Dir Wind Speed Gust Speed Precip Events Conditions
1:15 AM 32.0 °F 22.1 °F 24.8 °F 75% 30.03 in 10.0 mi NNW 13.8 mph 21.9 mph N/A   Overcast
1:53 AM 32.0 °F 22.1 °F 25.0 °F 75% 30.06 in 10.0 mi NNW 13.8 mph 23.0 mph N/A   Mostly Cloudy
2:32 AM 30.2 °F 21.3 °F 24.8 °F 80% 30.03 in 9.0 mi NW 10.4 mph - N/A   Mostly Cloudy
2:53 AM 30.9 °F 20.2 °F 24.1 °F 76% 30.06 in 9.0 mi NNW 15.0 mph 24.2 mph N/A   Mostly Cloudy
3:01 AM 30.2 °F 20.2 °F 24.8 °F 80% 30.03 in 9.0 mi NNW 12.7 mph 23.0 mph N/A   Scattered Clouds
3:53 AM 30.0 °F 18.7 °F 23.0 °F 75% 30.08 in 10.0 mi NW 16.1 mph 24.2 mph N/A   Scattered Clouds
4:34 AM 28.4 °F 16.2 °F 21.2 °F 74% 30.05 in 10.0 mi NNW 17.3 mph 24.2 mph N/A   Mostly Cloudy
4:42 AM 28.4 °F 16.6 °F 21.2 °F 74% 30.06 in 10.0 mi NW 16.1 mph 23.0 mph N/A   Mostly Cloudy
4:53 AM 28.9 °F 17.7 °F 21.9 °F 75% 30.09 in 10.0 mi NNW 15.0 mph - N/A   Mostly Cloudy
5:11 AM 28.4 °F 18.5 °F 21.2 °F 74% 30.07 in 10.0 mi NNW 11.5 mph 23.0 mph N/A   Scattered Clouds
5:42 AM 28.4 °F 18.0 °F 21.2 °F 74% 30.08 in 10.0 mi NNW 12.7 mph 20.7 mph N/A   Mostly Cloudy
5:53 AM 28.0 °F 17.0 °F 21.0 °F 75% 30.12 in 10.0 mi NNW 13.8 mph - N/A   Overcast
6:27 AM 26.6 °F 13.8 °F 21.2 °F 80% 30.10 in 10.0 mi NW 17.3 mph 21.9 mph N/A   Overcast
6:53 AM 27.0 °F 13.9 °F 21.0 °F 78% 30.14 in 10.0 mi NNW 18.4 mph 23.0 mph N/A   Overcast
7:53 AM 28.0 °F 17.0 °F 21.9 °F 78% 30.17 in 10.0 mi NNW 13.8 mph 21.9 mph N/A   Overcast
8:53 AM 28.0 °F 16.5 °F 21.9 °F 78% 30.18 in 10.0 mi NNW 15.0 mph 21.9 mph N/A   Overcast
9:53 AM 28.9 °F 19.8 °F 21.9 °F 75% 30.19 in 9.0 mi NNW 10.4 mph - N/A   Overcast
10:37 AM 30.2 °F 20.8 °F 23.0 °F 75% 30.16 in 10.0 mi NNW 11.5 mph - N/A   Overcast
10:53 AM 30.0 °F 20.5 °F 23.0 °F 75% 30.19 in 10.0 mi NNW 11.5 mph - N/A   Overcast
11:53 AM 30.0 °F 20.5 °F 23.0 °F 75% 30.20 in 10.0 mi NNW 11.5 mph - N/A   Overcast
12:53 PM 30.9 °F 20.7 °F 24.1 °F 76% 30.20 in 10.0 mi North 13.8 mph - N/A   Overcast
1:35 PM 32.0 °F 23.6 °F 24.8 °F 75% 30.16 in 10.0 mi WNW 10.4 mph - N/A   Overcast
1:53 PM 32.0 °F 23.6 °F 24.1 °F 73% 30.19 in 10.0 mi WNW 10.4 mph - N/A   Overcast
2:07 PM 30.2 °F 19.3 °F 24.8 °F 80% 30.16 in 10.0 mi WNW 15.0 mph 20.7 mph N/A   Overcast
2:53 PM 30.9 °F 21.2 °F 24.1 °F 76% 30.19 in 10.0 mi NW 12.7 mph - N/A   Overcast
3:17 PM 32.0 °F 23.6 °F 24.8 °F 75% 30.16 in 10.0 mi WNW 10.4 mph - N/A   Overcast
3:53 PM 32.0 °F 25.6 °F 24.1 °F 73% 30.19 in 10.0 mi NW 6.9 mph - N/A   Overcast
4:53 PM 32.0 °F 24.8 °F 23.0 °F 69% 30.19 in 10.0 mi NNW 8.1 mph - N/A   Overcast
5:53 PM 30.9 °F 25.2 °F 23.0 °F 72% 30.21 in 10.0 mi NW 5.8 mph - N/A   Overcast
6:34 PM 30.2 °F 25.4 °F 24.8 °F 80% 30.18 in 9.0 mi WNW 4.6 mph - N/A   Overcast
6:53 PM 30.0 °F 25.2 °F 24.1 °F 79% 30.21 in 9.0 mi WNW 4.6 mph - N/A   Overcast
7:19 PM 30.2 °F 22.6 °F 24.8 °F 80% 30.18 in 9.0 mi WNW 8.1 mph - N/A   Overcast
7:45 PM 30.2 °F 23.4 °F 24.8 °F 80% 30.18 in 8.0 mi WNW 6.9 mph - N/A   Overcast
7:53 PM 30.0 °F 22.4 °F 24.1 °F 79% 30.22 in 8.0 mi WNW 8.1 mph - N/A   Overcast
8:24 PM 30.2 °F 23.4 °F 24.8 °F 80% 30.18 in 8.0 mi WNW 6.9 mph - N/A   Overcast
8:50 PM 30.2 °F 23.4 °F 24.8 °F 80% 30.18 in 9.0 mi WNW 6.9 mph - N/A   Overcast
8:53 PM 30.0 °F 23.2 °F 24.1 °F 79% 30.22 in 9.0 mi WNW 6.9 mph - N/A   Overcast
9:53 PM 30.0 °F 24.1 °F 24.1 °F 79% 30.22 in 10.0 mi WNW 5.8 mph - N/A   Overcast
10:53 PM 30.0 °F 24.1 °F 24.1 °F 79% 30.21 in 10.0 mi NW 5.8 mph - N/A   Overcast
11:53 PM 30.0 °F 22.4 °F 24.1 °F 79% 30.20 in 9.0 mi NW 8.1 mph - N/A   Overcast